Find OneWeb SL0689

NORAD ID: 61597 Int'l Des: 2024-188 Owner: ONEWEBE Country: UK Constellation: oneweb operational
LEOCIRCULARPOLARONEWEB_TYPE

リアルタイム位置

3D地球を読み込み中...

OneWeb SL0689について

説明を読み込み中...

次回通過

Passes for default location (London). Set your location on the main map for personalized predictions.

高度履歴

Loading altitude history...

軌道要素

1 61597U 24188D 26124.01494899 .00000102 00000-0 25110-3 0 9995
2 61597 87.8944 29.8275 0001505 82.3796 277.7502 13.11419791 78663
Epoch: May 4, 2026 • Age: 11 hours

現在のステータス

高度 1219.5 km
速度 7.25 km/s
衛星直下点 8.27°N, 3.13°W
打ち上げ日 Oct 20, 2024
運用期間 1.5 years
タイプ internet

技術仕様

分類 Payload
質量 148.00 kg
乾燥質量 140.00 kg
総質量 148.00 kg
長さ 1.30 m
直径 1.00 m
スパン 5.00 m
形状 Trapezoid+2 pan
製造者 ONEWUS
バスタイプ ARROW
フェーズステータス In Orbit
所有者/国 ONEWEBE/UK

Most Searched